#timestamp,LO_Frequency,Hit,StdDev 
1673881215.6,286046999.5,N
1673881235.4,286046999.2,N
1673881255.2,286046999.0,N
1673881275.1,286046997.2,N
1673881276.0,286046997.2,N
1673881295.8,286046996.6,N
1673881315.7,286046999.3,N
1673881335.5,286046998.1,N
1673881355.3,286047000.6,N
1673881375.2,286047000.7,N
1673881395.0,286047000.1,N
1673881395.9,286047000.1,N
1673881415.7,286046999.7,N
1673881435.6,286047002.6,N
1673881455.4,286047000.6,N
1673881475.3,286047000.1,N
1673881495.1,286047000.1,N
1673881496.0,286047000.1,N
1673881515.8,286047000.0,N
1673881535.7,286046998.1,N
1673881555.5,286046998.6,N
1673881575.4,286047001.2,N
1673881595.2,286047002.3,N
1673881615.0,286047002.8,N
1673881615.9,286047002.8,N
1673881635.8,286047002.2,N
1673881655.6,286047004.0,N
1673881675.4,286047001.1,N
1673881695.3,286046997.5,N
1673881715.1,286046996.6,N
1673881735.9,286046999.4,N
1673881755.7,286047000.7,N
1673881775.5,286047002.8,N
1673881795.4,286047002.3,N
1673881815.2,286047001.6,N
1673881835.0,286047004.3,N
1673881835.9,286047004.3,N
1673881855.8,286047002.6,N
1673881875.6,286046999.3,N
1673881895.5,286046997.3,N
1673881915.3,286046999.4,N
1673881935.1,286046999.0,N
1673881955.9,286046999.1,N
1673881975.7,286047000.0,N
1673881995.6,286047001.2,N
1673882015.4,286047001.1,N
1673882035.2,286047000.2,N
1673882055.1,286047002.5,N
1673882056.0,286047002.5,N
1673882075.8,286047000.3,N
1673882095.6,286046999.4,N
1673882115.5,286047000.4,N
1673882135.3,286047002.6,N
1673882155.2,286047002.0,N
1673882175.9,286047002.0,N
1673882195.7,286047004.0,N
1673882215.6,286047003.4,N
1673882235.4,286047002.2,N
1673882255.2,286047001.8,N
1673882275.1,286046999.9,N
1673882276.0,286046999.9,N
1673882295.8,286046998.4,N
1673882315.7,286046999.1,N
1673882335.5,286046999.6,N
1673882355.3,286046999.6,N
1673882375.2,286046996.8,N
1673882395.0,286046997.3,N
1673882395.9,286046997.3,N
1673882415.7,286046999.6,N
1673882435.6,286046999.1,N
1673882455.4,286046999.4,N
1673882475.3,286046997.7,N
1673882495.1,286046996.6,N
1673882515.8,286047000.8,N
1673882535.7,286046999.4,N
1673882555.5,286047001.0,N
1673882575.4,286046998.6,N
1673882595.2,286047000.2,N
1673882615.0,286047001.7,N
1673882615.9,286047001.7,N
1673882635.8,286047004.4,N
1673882655.6,286047003.4,N
1673882675.5,286047005.9,N
1673882695.3,286047003.4,N
1673882715.1,286047003.7,N
1673882735.9,286047003.1,N
1673882755.7,286047001.4,N
1673882775.6,286047001.5,N
1673882795.4,286047003.0,N
1673882815.2,286047004.9,N
1673882835.1,286047005.4,N
1673882836.0,286047005.4,N
1673882855.8,286047001.6,N
1673882875.7,286047002.5,N
1673882895.5,286047001.9,N
1673882915.3,286047002.8,N
1673882935.2,286047002.3,N
1673882955.0,286047000.3,N
1673882955.9,286047000.3,N
1673882975.8,286046998.1,N
1673882995.6,286046998.3,N
1673883015.4,286046999.4,N
1673883035.3,286046999.1,N
1673883055.1,286046999.4,N
1673883075.8,286047000.0,N
1673883095.7,286047002.4,N
1673883115.5,286047000.6,N
1673883135.4,286046999.5,N
1673883155.2,286046996.5,N
1673883175.0,286047000.8,N
1673883175.9,286047000.8,N
1673883195.8,286046998.8,N
1673883215.6,286047002.7,N
1673883235.5,286046999.8,N
1673883255.3,286047002.4,N
1673883275.1,286047002.3,N
1673883295.9,286047001.1,N
1673883315.7,286046999.8,N
1673883335.5,286047002.7,N
1673883355.4,286047002.1,N
1673883375.2,286047001.8,N
1673883395.1,286047000.1,N
1673883396.0,286047000.1,N
1673883415.8,286047002.0,N
1673883435.6,286046999.8,N
1673883455.5,286047002.2,N
1673883475.3,286047005.1,Y
1673883495.2,286047002.9,P
1673883515.9,286047001.4,N
1673883535.7,286047001.3,N
1673883555.6,286047002.4,N
1673883575.4,286047001.1,N
1673883595.2,286046998.8,N
1673883615.1,286046998.1,N
1673883616.0,286046998.1,N
1673883635.8,286047002.8,N
1673883655.7,286047003.8,N
1673883675.5,286047004.3,N
1673883695.3,286047003.2,N
1673883715.2,286047005.0,N
1673883735.0,286047003.6,N
1673883735.9,286047003.6,N
1673883755.7,286047004.4,N
1673883775.6,286047002.5,N
1673883795.4,286047002.2,N
1673883815.3,286047003.1,N
1673883835.1,286047004.1,N
1673883836.0,286047004.1,N
1673883855.8,286047004.3,N
1673883875.7,286047005.6,N
1673883895.5,286047005.7,N
1673883915.4,286047007.6,Y
1673883935.2,286047004.4,P
1673883955.0,286047004.2,P
1673883955.9,286047004.2,P
1673883975.8,286047001.3,N
1673883995.6,286047002.6,N
1673884015.4,286047001.7,N
1673884035.3,286047002.6,N
1673884055.1,286047002.8,N
1673884075.9,286047003.6,Y
1673884095.7,286046999.9,P
1673884115.5,286046997.0,N
1673884135.4,286046996.5,N
1673884155.2,286046995.9,N
1673884175.0,286046995.4,N
1673884175.9,286046995.4,N
1673884195.8,286046999.6,N
1673884215.6,286046995.3,N
1673884235.5,286046996.8,N
1673884255.3,286046996.9,N
1673884275.1,286046998.3,N
1673884295.9,286047000.7,N
1673884315.7,286047000.3,N
1673884335.8,286047001.2,N
1673884355.6,286047001.0,N
1673884375.4,286046999.9,N
1673884395.3,286047001.0,N
1673884415.1,286047000.6,N
1673884435.8,286046998.3,N
1673884455.7,286046999.4,N
1673884475.5,286046998.9,N
1673884495.4,286047002.5,N
1673884515.2,286047000.4,N
1673884535.0,286047000.3,N
1673884535.9,286047000.3,N
1673884555.8,286047002.5,N
1673884575.6,286047001.6,N
1673884595.4,286047001.8,N
1673884615.3,286047000.3,N
1673884635.1,286046998.7,N
1673884655.9,286046999.1,N
1673884675.7,286046997.0,N
1673884695.5,286046999.0,N
1673884715.4,286046998.4,N
1673884735.2,286046998.5,N
1673884755.1,286047001.1,N
1673884756.0,286047001.1,N
1673884775.8,286046998.3,N
1673884795.6,286047001.0,N
